Regional Weather Roundup
Issued by NWS

Home | Current Version | Previous Version | Text Only | Print | Product List | Glossary On
Versions: 1 2 3 4 5 6 7 8 9 10 11 12 13 14 15 16 17 18 19 20 21 22 23 24 25 26 27 28 29 30 31 32 33 34 35 36 37 38 39 40 41 42 43 44 45 46 47 48 49 50
000
ASUS43 KIND 020709
RWRIN

WEATHER ROUNDUP FOR INDIANA
NATIONAL WEATHER SERVICE INDIANAPOLIS IN
200 AM EST WED DEC 02 2020

NOTE: "FAIR" INDICATES FEW OR NO CLOUDS BELOW 12,000 FEET WITH NO
SIGNIFICANT WEATHER AND/OR OBSTRUCTIONS TO VISIBILITY.

* - STATION DOES NOT REPORT WEATHER SUCH AS PRECIPITATION OR FOG.

+ - STATION NOT QUALITY CONTROLLED BY THE NATIONAL WEATHER SERVICE.
    USE DATA WITH CAUTION...ESPECIALLY DEWPOINT AND RELATIVE
    HUMIDITY OBSERVATIONS.

INZ001>003-010>013-019-020-020800-
NORTHWEST INDIANA

CITY           SKY/WX    TMP DP  RH WIND       PRES   REMARKS
GARY /AIRPORT/ CLEAR     25  19  80 W6        30.21S WCI  18
KNOX *+        CLEAR     25  21  86 W9        30.18R WCI  15
LA PORTE +     MOCLDY    28  25  87 W5        30.18R WCI  23
MICHIGAN CITY+ PTCLDY    34  28  80 NW5       30.19R WCI  30
MONTICELLO +   CLEAR     23  19  84 W7        30.20S WCI  15
RENSSELAER +   CLEAR     23  19  86 W5        30.21S WCI  17
VALPARAISO     CLEAR     25  20  81 W8        30.19R WCI  16

$$

LMZ046-743>745-020800-
SOUTHERN LAKE MICHIGAN

STATION/POSITION TIME  TEMP    WIND        PRES    WAVE
                       AIR SEA DIR/SP/G            HT
                 (UTC) (F)     (DEG/KT/KT) (MB)    (FT)
BURNS HARBOR     0640   36     310/  8/  9 1022.7R
MICHIGAN CITY    0640   37     320/ 15/ 17   N/A

$$

INZ004-005-014>016-021>024-020800-
NORTH CENTRAL INDIANA

CITY           SKY/WX    TMP DP  RH WIND       PRES   REMARKS
GOSHEN         CLEAR     25  22  88 W8        30.13R WCI  16
LOGANSPORT +   CLEAR     23  21  93 W7        30.21R WCI  15
PERU/GRISSOM   CLEAR     23  23  99 W8        30.17R WCI  14
PLYMOUTH *+    CLEAR     25  21  86 W3        30.16R
SOUTH BEND     CLEAR     28  24  85 W3        30.16R
WARSAW +       CLEAR     25  21  86 W7        30.14S WCI  17

$$

INZ006>009-017-018-025>027-020800-
NORTHEAST INDIANA

CITY           SKY/WX    TMP DP  RH WIND       PRES   REMARKS
ANGOLA *+        N/A     30  27  86 W6        30.09R WCI  24
AUBURN +       CLEAR     28  27  93 W8        30.11R WCI  20
FORT WAYNE     CLEAR     29  22  75 W10       30.13R WCI  20
HUNTINGTON +   CLEAR     26  20  80 W7        30.15R WCI  18
KENDALLVILLE +   N/A     29  27  90 W7        30.10R WCI  22

$$

INZ028-029-035-036-043>045-051>053-020800-
WEST CENTRAL INDIANA

CITY           SKY/WX    TMP DP  RH WIND       PRES   REMARKS
CRAWFORDSVL +  CLEAR     20  17  86 CALM      30.22R
GREENCASTLE +  FAIR      24  19  83 W5        30.23R WCI  18
LAFAYETTE      CLEAR     23  20  88 MISG      30.22R
TERRE HAUTE    CLEAR     24  19  81 W5        30.25R WCI  18

$$

INZ030>032-037>040-046>048-054>057-064-065-020800-
CENTRAL INDIANA

CITY           SKY/WX    TMP DP  RH WIND       PRES   REMARKS
ANDERSON +     CLEAR     25  20  82 W5        30.19R WCI  19
FRANKFORT +    CLEAR     23  19  85 W5        30.21S WCI  17
GREENWOOD *+   CLEAR     24  20  85 W5        30.22R WCI  18
INDIANAPOLIS   CLEAR     21  18  88 W8        30.21R WCI  11
-EAGLE CREEK   CLEAR     25  19  78 W6        30.20R WCI  18
KOKOMO +       CLEAR     23  20  88 W10       30.19R WCI  12
MARION +       CLEAR     25  21  87 W9        30.18R WCI  15
MT COMFORT *+  CLEAR     21  21 100 W7        30.20R WCI  13
SHELBYVILLE    CLEAR     25  19  78 W5        30.19S WCI  19

$$

INZ033-034-041-042-049-050-058-059-020800-
EAST CENTRAL INDIANA

CITY           SKY/WX    TMP DP  RH WIND       PRES   REMARKS
MUNCIE         CLEAR     26  19  74 W8        30.16R WCI  18
PORTLAND +     FAIR      27  19  74 W8        30.13R WCI  18
RICHMOND +       N/A     23  23 100 MISG      30.17R

$$

INZ060-061-067>069-081>083-085>088-020800-
SOUTHWEST INDIANA

CITY           SKY/WX    TMP DP  RH WIND       PRES   REMARKS
EVANSVILLE     CLEAR     22  18  85 CALM      30.28S
HUNTINGBURG +  CLEAR     21  20  96 SW5       30.27S WCI  15
WASHINGTON +   CLEAR     27  22  80 W7        30.26R WCI  19

$$

INZ062-063-066-070>080-084-089>092-020800-
SOUTH CENTRAL AND SOUTHEAST INDIANA

CITY           SKY/WX    TMP DP  RH WIND       PRES   REMARKS
BATESVILLE +   CLEAR     23  23 100 CALM      30.19R
BLOOMINGTON    CLEAR     22  17  81 W3        30.22R
FRENCH LICK *+ FAIR      27  27 100 CALM      30.24S
JEFFERSONVL +  FAIR      27  22  82 CALM      30.26S
MADISON *+     CLEAR     27  23  86 W3        30.24R

$$




USA.gov is the U.S. government's official web portal to all federal, state and local government web resources and services.